Flag for Canada Weather past 2 weeks in Igloolik, Nunavut Territory, Canada

Now
39 °F

Partly cloudy.


Feels Like: 31 °F
Forecast: 39 / 44 °F
Wind: 14 mph from South

Location: Hall Beach

Current Time: Aug 21, 2014 at 4:16:56 AM

Latest Report: Aug 21, 2014 at 3:46 AM


Visibility: 9 mi

Pressure: 30.27 "Hg

Humidity: 87%

Dew point: 36 °F

Location of IgloolikLocation

Historic Weather in Igloolik — Graph

°F

Igloolik temperature yesterday

Maximum temperature yesterday: 45 °F (at 4:00 PM)
Minimum temperature yesterday: 36 °F (at 4:00 AM)
Average temperature yesterday: 41 °F

Past Weeks' High & Low Weather Summary

 TemperatureHumidityPressure
High55 °F (Aug 10, 2:00 PM)100% (Aug 6, 6:00 AM)30.27 "Hg (Aug 6, 6:00 AM)
Low32 °F (Aug 17, 3:00 AM)46% (Aug 7, 5:00 PM)29.27 "Hg (Aug 19, 5:59 AM)
Average40 °F84%29.74 "Hg
* Reported Aug 6 3:00 AM — Aug 21 3:00 AM, Igloolik, Weather by CustomWeather, © 2014

Note: Actual official high and low records may vary slightly from our data, if they occured in-between our weather recording intervals... More about our weather records

Advertising

Igloolik weather history for previous 24 hours

 ConditionsComfort  
Time TempWeatherWind HumidityBarometerVisibility
3:00 AM
Aug 21
39 °FOvercast.9 mph87%30.27 "Hg9 mi
2:00 AM37 °FMostly cloudy.8 mph93%30.27 "Hg9 mi
1:00 AM39 °FMostly cloudy.8 mph87%30.27 "Hg9 mi
12:00 AM39 °FPassing clouds.12 mph81%30.27 "Hg9 mi
11:00 PM
Aug 20
39 °FPassing clouds.12 mph81%30.27 "Hg9 mi
10:00 PM39 °FPartly cloudy.13 mph81%30.26 "Hg9 mi
9:00 PM41 °FClear.12 mph81%30.25 "Hg9 mi
8:00 PM43 °FScattered clouds.12 mph76%30.23 "Hg15 mi
7:00 PM43 °FScattered clouds.13 mph76%30.22 "Hg15 mi
6:00 PM43 °FPassing clouds.10 mph81%30.22 "Hg15 mi
5:00 PM41 °FPassing clouds.9 mph81%30.21 "Hg15 mi
4:00 PM45 °FPassing clouds.12 mph71%30.19 "Hg15 mi
3:48 PM43 °FScattered clouds.13 mph76%30.19 "Hg15 mi
3:00 PM43 °FPartly sunny.13 mph76%30.18 "Hg15 mi
2:00 PM41 °FPartly sunny.13 mph81%30.16 "Hg15 mi
1:00 PM43 °FSprinkles. Broken clouds.13 mph71%30.15 "Hg15 mi
12:47 PM43 °FSprinkles. Broken clouds.13 mph71%30.15 "Hg15 mi
12:00 PM43 °FPartly sunny.15 mph71%30.13 "Hg15 mi
11:00 AM43 °FBroken clouds.9 mph66%30.12 "Hg15 mi
10:00 AM43 °FPartly sunny.14 mph66%30.10 "Hg15 mi
9:00 AM41 °FPartly sunny.16 mph76%30.08 "Hg15 mi
8:00 AM39 °FPartly sunny.16 mph81%30.06 "Hg15 mi
7:00 AM37 °FScattered clouds.13 mph87%30.04 "Hg9 mi
6:00 AM36 °FSunny.13 mph87%30.00 "Hg9 mi
5:00 AM37 °FScattered clouds.12 mph81%29.97 "Hg9 mi
4:00 AM36 °FSunny.14 mph93%29.94 "Hg9 mi
Weather by CustomWeather, © 2014

See weather overviewHow to use our weather pages